Tracking 33446 objects as of 10-Mar-2026
HD Live streaming from Space Station
objects crossing your sky now

STARLINK-35367

Track STARLINK-35367 now!
10-day predictions
STARLINK-35367 is classified as:


NORAD ID: 65883
Int'l Code: 2025-224B
Perigee: 481.6 km
Apogee: 483.1 km
Inclination: 53.2 °
Period: 94.1 minutes
Semi major axis: 6853 km
RCS: Unknown
Launch date: October 7, 2025
Source: United States (US)
Launch site: AIR FORCE EASTERN TEST RANGE (AFETR)
Your satellite tracking list
Your tracking list is empty




NASA's NSSDC Master Catalog

Two Line Element Set (TLE):
1 65883U 25224B   26069.19670203  .00041977  00000-0  14211-2 0  9995
2 65883  53.1597   8.8770 0001119  77.2085 282.9041 15.30208141 24909
Source of the keplerian elements: AFSPC